Location: Isles
(48.9125°N, 2.8272°E)
Time: 14:40:27
(UTC+00:00)

CZ-4B DEB - Pass Details

Date: 03 February 2023
Orbit: 839 x 859 km, 99.1° (Epoch: 29 March)

Event Time Altitude Azimuth Distance (km) Brightness Sun altitude
Rises 17:46:36 0° 154° (SSE) 3,381 7.2 -9.8°
Reaches altitude 10° 17:48:57 10° 152° (SSE) 2,451 6.5 -10.1°
Maximum altitude 17:54:21 68° 70° (ENE) 907 4.2 -11.0°
Drops below altitude 10° 17:59:47 10° 349° (N) 2,477 6.6 -11.9°
Sets 18:02:10 0° 347° (NNW) 3,419 7.4 -12.3°
